Flag for Guyana Weather past 2 weeks in Georgetown, Guyana

Now
75 °F

Passing clouds.


Feels Like: 74 °F
Forecast: 77 / 85 °F
Wind: 2 mph from North

Location: Georgetown/Cheddi Jagan International Airport

Current Time: Jul 7, 2015 at 3:03:25 AM

Latest Report: Jul 7, 2015 at 2:00 AM


Visibility: N/A

Pressure: 29.89 "Hg

Humidity: 94%

Dew point: 73 °F

Location of GeorgetownLocation

Historic Weather in Georgetown — Graph

°F

Georgetown temperature yesterday

Maximum temperature yesterday: 86 °F (at 11:00 AM)
Minimum temperature yesterday: 75 °F (at 4:00 AM)
Average temperature yesterday: 80 °F

Past Weeks' High & Low Weather Summary

 TemperatureHumidityPressure
High90 °F (Jun 23, 11:00 AM)100% (Jun 22, 5:00 AM)30.07 "Hg (Jun 22, 5:00 AM)
Low70 °F (Jun 29, 12:00 AM)59% (Jun 23, 11:00 AM)29.83 "Hg (Jul 2, 3:00 PM)
Average79 °F88%29.95 "Hg
* Reported Jun 22 5:00 AM — Jul 7 1:00 AM, Georgetown, Weather by CustomWeather, © 2015

Note: Actual official high and low records may vary slightly from our data, if they occured in-between our weather recording intervals... More about our weather records

Advertising

Georgetown weather history for previous 24 hours

 ConditionsComfort  
Time TempWeatherWind HumidityBarometerVisibility
1:00 AM
Tue, Jul 7
75 °FPassing clouds.5 mph100%29.92 "HgN/A
12:00 AM75 °FPassing clouds.5 mph100%29.92 "HgN/A
11:00 PM
Mon, Jul 6
77 °FPassing clouds.5 mph94%29.92 "HgN/A
10:00 PM77 °FPassing clouds.5 mph100%29.92 "HgN/A
9:00 PM77 °FPassing clouds.5 mph100%29.92 "HgN/A
8:00 PM79 °FPassing clouds.5 mph94%29.92 "HgN/A
7:00 PM79 °FPartly cloudy.5 mph94%29.89 "HgN/A
6:00 PM82 °FBroken clouds.7 mph84%29.89 "HgN/A
5:00 PM84 °FBroken clouds.9 mph74%29.89 "HgN/A
4:00 PM86 °FBroken clouds.14 mph75%29.86 "HgN/A
3:00 PM84 °FPartly sunny.9 mph74%29.86 "HgN/A
2:00 PM82 °FBroken clouds.9 mph84%29.89 "HgN/A
1:00 PM82 °FBroken clouds.9 mph84%29.89 "HgN/A
12:00 PM86 °FBroken clouds.7 mph66%29.92 "HgN/A
11:00 AM86 °FBroken clouds.7 mph70%29.92 "HgN/A
10:00 AM84 °FBroken clouds.7 mph79%29.86 "HgN/A
9:00 AM84 °FPartly sunny.7 mph79%29.86 "HgN/A
8:00 AM81 °FScattered clouds.7 mph89%29.95 "HgN/A
7:00 AM75 °FSprinkles. Partly sunny.5 mph100%29.92 "Hg5 mi
6:00 AM75 °FBroken clouds.No wind94%29.92 "HgN/A
5:00 AM75 °FPassing clouds.No wind100%29.89 "HgN/A
4:00 AM75 °FPassing clouds.No wind100%29.89 "HgN/A
Weather by CustomWeather, © 2015

See weather overviewHow to use our weather pages